sat.trackr.live / text

‹ back to catalog

STARLINK-35908

NORAD 66639 · 2025-271Y

PAYLOAD ACTIVE UNKNOWN

§ Identity

Operator
Country
US
Launch date
2025-11-23
Launch site
AFWTR
Launch vehicle
Mass (kg)
RCS (m²)

Purposes: comms

External: N2YO · Heavens-Above · Gunter

§ Orbital elements

Epoch: 2026-09-20T15:35:37.230144Z

Period
93.85 min
Inclination
53.1584°
Eccentricity
0.0001314
Mean motion
15.34413187 rev/d
Perigee alt
461.8 km
Apogee alt
463.6 km
Semi-major
6,840.8 km
B*
3.8570e-4
RAAN
313.1096°
Arg perigee
73.8891°
Mean anomaly
286.2256°
Rev number
4,743

§ Raw data

STARLINK-359081 66639U 25271Y   26263.64973646  .00012683  00000+0  38570-3 0  99962 66639  53.1584 313.1096 0001314  73.8891 286.2256 15.34413187 47432

JSON: /api/v1/satellites/66639 · /tle

For live sub-satellite position, see the globe view (requires WebGL).

§ Visibility from observer

Set your observer location to see the next 7 days of passes ≥ 10°. The values pass through the URL so the page stays shareable.

No JS? Fill the form by hand. The geolocation button needs JavaScript.